Theta_e
342 342 342 344 339 337 332 334 337 338 338 340 342 342 347 345 346 344 343 343 344 344
340 344 344 346 343 341 340 342 343 340 340 341 342 343 346 346 344 344 343 342 342 344
340 342 344 344 346 346 343 343 346 346 344 342 343 343 346 346 345 343 343 343 341 342
339 345 347 346 347 349 350 350 349 348 346 343 343 341 342 347 347 344 343 342 341 342
340 341 346 350 351 352 350 352 353 349 347 345 345 344 341 342 347 345 344 341 340 342
343 343 344 347 350 351 351 352 350 350 348 349 347 344 345 348 347 345 345 340 339 341
344 345 346 346 347 347 347 347 349 349 350 350 351 348 348 349 348 346 343 341 339 342
343 344 345 343 342 342 348 347 344 344 348 350 349 352 350 347 347 342 338 341 338 336
339 340 340 340 341 342 342 342 343 341 345 348 351 341 340 346 342 340 341 340 340 335
332 332 331 333 335 335 333 336 336 339 341 342 345 334 339 344 343 338 338 338 335 336
326 325 326 328 327 326 327 328 329 329 331 332 332 328 332 340 341 340 338 337 334 333
322 321 323 321 320 321 321 322 322 324 326 318 318 324 327 333 338 337 337 339 338 337
322 323 321 319 320 320 322 321 323 322 319 320 315 320 321 327 332 334 334 334 336 331
323 323 321 319 320 321 317 315 314 316 317 318 317 315 318 319 319 322 325 327 329 332
Wind_Speed
9 7 7 5 5 5 5 6 6 5 5 5 4 5 5 5 6 5 5 6 5 4
6 7 6 6 7 6 6 6 6 6 5 6 5 6 7 6 7 6 6 7 5 5
6 7 8 6 8 8 8 8 7 7 7 6 7 6 6 6 5 7 6 6 6 6
8 8 8 8 9 9 8 10 10 8 7 6 8 7 7 8 6 8 8 7 7 8
8 7 9 11 11 7 8 8 8 7 8 7 8 7 9 9 9 10 9 9 6 7
10 10 14 12 10 7 6 7 7 7 9 10 10 8 10 10 10 8 8 3 5 6
7 7 7 6 6 6 6 7 8 9 10 8 8 7 8 9 7 3 4 6 6 9
2 2 3 3 4 5 3 4 4 5 6 5 5 4 6 5 6 7 12 15 20 17
8 7 6 6 5 5 5 6 5 4 4 4 3 6 2 6 6 10 12 12 13 7
7 7 6 5 6 6 6 5 7 7 7 6 7 13 6 8 5 8 9 9 5 1
6 6 5 6 6 5 4 5 4 5 6 6 6 11 9 2 1 3 4 5 5 4
6 5 4 5 4 4 4 4 4 3 6 7 7 14 12 4 3 3 4 3 3 4
5 5 5 4 4 2 3 5 5 6 6 8 7 13 14 10 4 5 4 5 5 7
5 5 5 4 3 4 5 6 6 6 5 5 6 7 11 10 5 4 4 4 3 3
Wind_Direction
211 213 226 185 188 208 216 226 244 234 219 233 200 225 211 203 215 194 224 221 206 194
204 205 219 208 188 213 220 245 259 243 225 240 225 220 210 211 214 200 204 227 216 216
213 219 217 214 208 209 220 237 240 232 223 221 232 218 220 219 209 203 212 214 208 211
222 237 233 220 233 223 209 217 232 236 235 216 224 218 223 226 214 214 219 211 212 225
216 224 241 242 236 222 206 227 231 222 231 234 231 213 223 228 225 221 221 222 210 227
221 206 224 230 239 233 218 228 241 231 229 234 231 211 224 221 218 217 232 215 241 249
205 203 213 227 234 240 233 244 245 239 235 231 229 215 222 232 225 211 99 41 327 283
121 159 151 176 221 250 285 302 299 258 253 254 245 231 222 215 168 157 121 145 219 245
64 63 58 57 51 52 34 9 2 8 21 32 355 334 291 168 169 161 178 202 229 242
64 60 49 49 52 43 34 27 26 19 22 28 31 0 15 174 166 178 211 239 257 280
76 68 55 54 45 36 25 27 11 11 18 35 12 352 3 2 225 225 217 225 237 225
89 89 81 58 41 30 41 32 32 31 65 65 29 17 21 13 8 345 326 310 251 231
104 99 76 62 60 34 63 71 60 65 62 54 36 17 25 31 27 21 359 352 5 47
86 92 72 46 46 92 71 63 53 58 33 35 38 22 24 25 36 19 3 16 19 358